Home > Weather > Nürburg > Past weeks

Flag for Germany Past Weather in Nürburg, Rhineland-Palatinate, Germany — Yesterday and Last 2 Weeks

Now
66 °F

Overcast.


Feels Like: 66 °F
Forecast: 54 / 66 °F
Wind: 3 mph from East

Location: Nuerburg-Barweiler

Current Time: May 26, 2016 at 8:38:17 PM

Latest Report: May 26, 2016 at 7:00 PM


Visibility: 31 mi

Pressure: 29.93 "Hg (27.89 "Hg at 601m altitude)

Humidity: 58%

Dew Point: 50 °F

Location of NürburgLocation

Past Weather in Nürburg — Graph

°F

Nürburg Temperature Yesterday

Maximum temperature yesterday: 58 °F (at 7:00 PM)
Minimum temperature yesterday: 45 °F (at 6:00 AM)
Average temperature yesterday: 50 °F

High & Low Weather Summary for the Past Weeks

 TemperatureHumidityPressure
High69 °F (May 21, 7:00 PM)100% (May 26, 6:00 AM)30.17 "Hg (May 26, 6:00 AM)
Low36 °F (May 15, 6:00 AM)41% (May 17, 1:00 PM)29.44 "Hg (May 12, 6:00 PM)
Average52 °F75%29.91 "Hg
* Reported May 11 7:00 PM — May 26 7:00 PM, Nürburg, Weather by CustomWeather, © 2016

Note: Actual official high and low records may vary slightly from our data, if they occured in-between our weather recording intervals... More about our weather records

Advertising

Nürburg Weather History for the Previous 24 Hours

Scroll right to see more
 ConditionsComfort  
Time TempWeatherWind HumidityBarometerVisibility
7:00 PM
Thu, May 26
66 °FOvercast.3 mph58%29.93 "Hg31 mi
6:00 PM68 °FOvercast.2 mph52%29.93 "Hg28 mi
4:00 PM68 °FOvercast.2 mph49%29.95 "Hg19 mi
3:00 PM68 °FOvercast.3 mph46%29.96 "Hg19 mi
1:00 PM63 °FOvercast.2 mph58%29.98 "Hg19 mi
12:00 PM64 °FOvercast.2 mph55%29.98 "Hg14 mi
10:00 AM58 °FScattered clouds.1 mph73%30.01 "Hg9 mi
9:00 AM53 °FPassing clouds.No wind81%30.03 "Hg7 mi
7:00 AM43 °FScattered clouds.No wind95%30.04 "Hg3 mi
6:00 AM45 °FSunny.1 mph100%30.03 "Hg1 mi
4:00 AM47 °FPassing clouds.1 mph99%30.03 "Hg2 mi
3:00 AM48 °FPassing clouds.1 mph96%30.02 "Hg4 mi
1:00 AM50 °FOvercast.2 mph93%30.01 "Hg4 mi
12:00 AM50 °FOvercast.2 mph91%30.01 "Hg4 mi
10:00 PM
Wed, May 25
52 °FOvercast.3 mph87%29.99 "Hg5 mi
9:00 PM53 °FOvercast.2 mph84%29.98 "Hg5 mi
Weather by CustomWeather, © 2016

See weather overviewHow to use our weather pages